Home   Weather   Fairfield   Past weeks
Flag for South Africa

Past Weather in Fairfield, South Africa — Yesterday and Last 2 Weeks

Now
70 °F

Overcast.


Feels Like: 70 °F
Forecast: 67 / 65 °F
Wind: 3 mph from Southeast

Location: King Shaka International Airport

Current Time: Dec 9, 2019 at 3:13:25 pm

Latest Report: Dec 9, 2019 at 2:00 pm


Visibility: N/A

Pressure: 30.01 "Hg

Humidity: 73%

Dew Point: 61 °F

Location of FairfieldLocation

Past Weather in Fairfield — Graph

°F

Fairfield Temperature Yesterday

Maximum temperature yesterday: 72 °F (at 2:00 pm)
Minimum temperature yesterday: 64 °F (at 11:00 pm)
Average temperature yesterday: 68 °F

High & Low Weather Summary for the Past Weeks

 TemperatureHumidityPressure
High86 °F (Nov 29, 2:00 pm)94% (Nov 26, 3:00 am)30.33 "Hg (Nov 26, 3:00 am)
Low59 °F (Dec 4, 3:00 am)57% (Dec 1, 12:00 pm)29.62 "Hg (Dec 2, 11:00 pm)
Average71 °F80%29.96 "Hg
* Reported Nov 24 2:00 pm — Dec 9 2:00 pm, Fairfield. Weather by CustomWeather, © 2019

Note: Actual official high and low records may vary slightly from our data, if they occured in-between our weather recording intervals... More about our weather records

Fairfield Weather History for the Previous 24 Hours

Scroll right to see more
 ConditionsComfort  
Time TempWeatherWind HumidityBarometerVisibility
2:00 pm
Mon, Dec 9
70 °FOvercast.3 mph73%30.01 "HgN/A
1:00 pm72 °FPartly sunny.5 mph69%30.01 "HgN/A
12:00 pm70 °FOvercast.2 mph73%30.04 "HgN/A
11:00 am68 °FCloudy.5 mph83%30.04 "HgN/A
10:00 am66 °FMore clouds than sun.3 mph88%30.04 "HgN/A
9:00 am64 °FMostly cloudy.3 mph88%30.01 "HgN/A
8:52 am64 °FCloudy.3 mph88%30.01 "HgN/A
8:22 am64 °FLight rain. Cloudy.2 mph88%30.04 "Hg1 mi
7:18 am64 °FLight rain. Mostly cloudy.6 mph88%30.01 "Hg1 mi
7:00 am64 °FLight rain. Low clouds.6 mph88%30.01 "Hg1 mi
6:31 am64 °FLight rain. Low clouds.7 mph88%30.01 "Hg1 mi
6:22 am64 °FLight rain. Overcast.5 mph88%30.01 "Hg2 mi
6:00 am64 °FPartly sunny.2 mph88%30.01 "HgN/A
5:00 am64 °FPartly sunny.6 mph88%29.98 "HgN/A
4:00 am64 °FMostly cloudy.6 mph88%29.98 "HgN/A
3:00 am64 °FOvercast.5 mph88%29.95 "HgN/A
2:00 am66 °FOvercast.5 mph83%29.98 "HgN/A
1:00 am66 °FOvercast.6 mph83%29.98 "HgN/A
12:00 am64 °FMostly cloudy.7 mph88%30.01 "HgN/A
11:00 pm
Sun, Dec 8
64 °FMostly cloudy.7 mph88%30.01 "HgN/A
10:00 pm68 °FMostly cloudy.5 mph78%30.01 "HgN/A
9:00 pm66 °FPassing clouds.5 mph83%29.98 "HgN/A
8:00 pm66 °FPassing clouds.3 mph83%29.98 "HgN/A
7:00 pm66 °FLight rain. Partly cloudy.6 mph83%29.95 "Hg4 mi
6:17 pm68 °FLight rain. Partly sunny.9 mph78%29.95 "Hg2 mi
6:00 pm68 °FLight rain. Broken clouds.5 mph78%29.95 "Hg4 mi
5:00 pm70 °FBroken clouds.5 mph73%29.92 "HgN/A
4:00 pm68 °FBroken clouds.6 mph83%29.89 "HgN/A
3:21 pm66 °FLight rain. Partly sunny.3 mph88%29.89 "Hg4 mi
3:00 pm70 °FLight rain. Partly sunny.7 mph78%29.89 "Hg2 mi
Weather by CustomWeather, © 2019

See weather overview

Advertising